Other Public Products
Issued by NWS Grand Forks, ND

Home | Current Version | Previous Version | Text Only | Print | Product List | Glossary On
Versions: 1 2 3 4 5 6 7 8 9 10 11 12 13 14 15 16 17 18 19 20 21 22 23 24 25 26 27 28 29 30 31 32 33 34 35 36 37 38 39 40 41 42 43 44 45 46 47 48 49 50
000
FPUS83 KFGF 250131
OPUFGF
PRAIRIE TO PINES WEATHER ROUNDUP
NATIONAL WEATHER SERVICE EASTERN NORTH DAKOTA/GRAND FORKS ND
800 PM CDT THU JUL 24 2014

 **SATELLITE DATA USED TO AUGMENT SKY COVER AT AUTOMATED STATIONS**
 *****  WEATHER ACROSS EASTERN NORTH DAKOTA  *****

CITY           SKY/WX    TMP DP  RH WIND       PRES   REMARKS
GRAND FORKS    PTSUNNY   73  63  70 SE12      29.81F
GRAND FORKS AF PTSUNNY   72  66  82 E17       29.75F
GRAND CITY NWS   N/A     70 N/A N/A E24         N/A
BUXTON           N/A     72  69  89 E14         N/A
DEVILS LAKE    CLOUDY    72  63  73 SE16      29.74R
FARGO          CLOUDY    74  62  66 S7        29.92R
WAHPETON ARPT  CLOUDY    70  61  73 E6        29.88R
$$

 *****  WEATHER ACROSS CENTRAL AND WESTERN NORTH DAKOTA  *****

CITY           SKY/WX    TMP DP  RH WIND       PRES   REMARKS
JAMESTOWN      MOSUNNY   73  64  73 SE12      29.79F
BISMARCK       SUNNY     78  66  66 SE18G24   29.71F
MINOT          MOSUNNY   75  65  70 SE10      29.67F
MINOT AFB      PTSUNNY   77  68  74 SE10      29.67F
GARRISON         N/A     75  67  76 SE13      29.68F
WILLISTON      PTSUNNY   82  66  58 S8        29.65S
DICKINSON      PTSUNNY   75  68  78 SE15      29.67F
HETTINGER      CLOUDY    79  68  69 E7        29.72R
$$

 *****  OTHER OBSERVATIONS NORTHEAST NORTH DAKOTA  *****

CITY           SKY/WX    TMP DP  RH WIND       PRES   REMARKS
WALHALLA         N/A     72  63  73 SE10G17     N/A
LANGDON        FAIR      70  61  73 E15G21    29.77F
CAVALIER       FAIR      72  61  68 SE6       29.77F
GRAFTON        FAIR      72  63  73 SE10G18   29.75F
CANDO          MOCLDY    70  64  83 SE10G17   29.77R
FORT TOTTEN    NOT AVBL
ROLLA          MOCLDY    68  64  88 SE12      29.77R
RUGBY          CLOUDY    72  66  83 SE10      29.72F
 ***** THE ABOVE OBSERVATIONS ARE NON NWS ARE NOT QUALITY
        CONTROLLED AND MAY MIS-REPORT RAIN FOR SNOW...
$$

 *****  OTHER OBSERVATIONS SOUTHEAST NORTH DAKOTA *****

CITY           SKY/WX    TMP DP  RH WIND       PRES   REMARKS
COOPERSTOWN    NOT AVBL
VALLEY CITY    FAIR      72  68  88 SE17G26   29.78F
OAKES          NOT AVBL
GWINNER        MOCLDY    72  68  88 NE9       29.86R
SHEYENNE NWR     N/A     73  64  73 SE6       29.95
BUFFALO        NOT AVBL
WYNDMERE       NOT AVBL
 ***** THE ABOVE OBSERVATIONS ARE NON NWS ARE NOT QUALITY
       CONTROLLED AND MAY MIS-REPORT RAIN FOR SNOW...
$$

  *****  WEATHER ACROSS NORTHERN MINNESOTA  *****

CITY           SKY/WX    TMP DP  RH WIND       PRES   REMARKS
FLAG ISLAND    MOCLDY    72  57  60 S3        29.89F
WARROAD        CLOUDY    68  64  88 E6        29.90F
ROSEAU         CLOUDY    70  63  78 E6        29.88F
HALLOCK        MOSUNNY   73  64  73 SE9       29.80F
THF RVR FALLS  CLOUDY    72  61  68 SE9       29.88F
HALSTAD          N/A     71  63  74 SE14        N/A
FOSSTON        MOCLDY    70  61  73 S5        29.93S
BAUDETTE       CLOUDY    69  61  75 SW5       29.94S
WASKISH        LGT RAIN  64  61  88 CALM      29.92F
CROOKSTON      PTSUNNY   72  63  73 SE12      29.84F
$$
  *****  WEATHER ACROSS CENTRAL AND WEST MINNESOTA  *****

CITY           SKY/WX    TMP DP  RH WIND       PRES   REMARKS
BEMIDJI        PTCLDY    72  56  57 SE5       29.93F
PARK RAPIDS    MOCLDY    73  58  59 S6        29.93R
WADENA         CLOUDY    72  61  68 CALM      29.93R
DETROIT LAKES  MOCLDY    72  61  68 CALM      29.95R
MOORHEAD       MOCLDY    73  64  73 S5        29.92R
FERGUS FALLS   PTCLDY    72  57  60 S7        29.90R
ELBOW LAKE     FAIR      69  61  75 SE6       29.89R
MORRIS MN      PTCLDY    70  63  78 SE6       29.87R
STAPLES        CLOUDY    72  57  60 CALM      29.93S
WHEATON        MOCLDY    68  63  83 SE7       29.87S
$$
  *****  WEATHER ELSEWHERE ACROSS MINNESOTA  *****

CITY           SKY/WX    TMP DP  RH WIND       PRES   REMARKS
DULUTH         PTCLDY    70  59  68 N3        29.97R
INTRNTL FALLS  MOCLDY    71  58  63 CALM      29.93F
ELY            MOCLDY    68  55  64 S3        29.97S
CLOQUET        PTCLDY    72  55  56 CALM      29.97R
BRAINERD       CLOUDY    72  58  61 S5        29.93S
HIBBING        MOCLDY    67  60  78 CALM      29.98R
ALEXANDRIA     MOCLDY    70  61  73 SE6       29.92S
SAINT CLOUD    MOCLDY    75  62  64 SW7       29.92S
MINNEAPOLIS    PTCLDY    77  59  53 SW9       29.92S
$$

  *****  WEATHER ACROSS SOUTH DAKOTA  *****

CITY           SKY/WX    TMP DP  RH WIND       PRES   REMARKS
SIOUX FALLS    PTCLDY    71  62  73 S16       29.86F
BROOKINGS      NOT AVBL
WATERTOWN      CLEAR     70  57  63 SE14G23   29.82F
HURON          SUNNY     74  62  66 SE16G32   29.75S
SISSETON         N/A     72  65  78 S9        29.83S
ABERDEEN       SUNNY     74  63  68 SE15      29.78S
MITCHELL       CLEAR     77  64  64 SE28G39   29.77F
PIERRE         MOSUNNY   89  70  53 SE20G32   29.60F HX  94
MOBRIDGE       MOSUNNY   78  66  66 E20G31    29.67F
RAPID CITY     PTSUNNY   87  73  62 S3        29.69F HX  94
$$

  *****  SOME WEATHER IN NEARBY STATES *****

CITY           SKY/WX    TMP DP  RH WIND       PRES   REMARKS
GLASGOW MT     MOSUNNY   75  44  33 NW29G38   29.75R
GREAT FALLS MT SUNNY     71  27  19 W23G35    29.91F
CHEYENNE WY    SUNNY     84  47  27 W23G36    30.08S
SCOTTSBLUFF NE PTSUNNY   82  58  43 E10       29.88F
OMAHA NE       MOCLDY    78  61  55 SE20      29.96F
DES MOINES IA  CLOUDY    73  63  70 S12       30.01F
DAVENPORT IA   CLOUDY    69  59  70 W6        30.08S
CHICAGO IL     MOCLDY    69  41  36 E7        30.09S
EAU CLAIRE WI  MOCLDY    75  57  53 SE10      29.95R
LA CROSSE WI   CLOUDY    77  59  53 SE9       29.93
$$

  *****  SOME NATIONAL WEATHER *****

CITY           SKY/WX    TMP DP  RH WIND       PRES   REMARKS
LA GUARDIA NY  MOCLDY    76  55  48 N10       29.87R
RALEIGH NC     TSTM      70  66  88 N3        29.95R
ATLANTA GA     CLOUDY    74  70  87 SW5       29.97S
NEW ORLEANS LA PTCLDY    83  75  77 S7        29.94R HX  90
OKLAHOMA CITY  CLEAR     87  71  58 SE10      29.97F HX  93
ALBUQUERQUE NM MOSUNNY   90  38  16 SW13      30.15F
SALT LAKE CITY PTSUNNY   92  29  10 NW14      29.95F
LOS ANGELES CA MOSUNNY   77  62  59 W13       29.75F
BOISE ID       SUNNY     76  25  15 NW15      30.07F
SEATTLE WA     PTSUNNY   66  51  58 SW7       30.21S
$$

*** WEATHER ACROSS MANITOBA...SASKATCHEWAN AND ONTARIO ***
                ***ONTARIO***

CITY           SKY/WX    TMP DP  RH WIND       PRES   REMARKS
GERALDTON      PTCLDY    70  50  49 W7        29.90S
THUNDER BAY    MOCLDY    70  55  60 S9        29.92F
SIOUX LOOKOUT  MOCLDY    70  52  52 W2        29.93S
TORONTO        PTCLDY    66  43  42 N9        30.01R
BIG TROUT LK   CLEAR     72  55  56 N3        29.76F
PICKLE LAKE    PTCLDY    75  45  33 W6        29.86S
DRYDEN         MOCLDY    72  54  53 SW6       29.93F
KENORA         MOCLDY    70  55  60 SW5       29.93F
$$
                *** MANITOBA***

CITY           SKY/WX    TMP DP  RH WIND       PRES   REMARKS
BRANDON        PTSUNNY   73  64  73 SE9       29.75F
DAUPHIN        SUNNY     73  63  68 SE15G22   29.75F
ISLAND LAKE    MOSUNNY   77  55  47 CALM      29.83F
PILOT MOUND      N/A    N/A N/A N/A E14         N/A
THE PAS        CLOUDY    75  57  53 SE15      29.75F
THOMPSON       MOSUNNY   79  54  41 S5        29.81S
WINNIPEG       PTSUNNY   73  59  60 SE12G18   29.83F
LYNN LAKE      SUNNY     77  48  36 S8        29.80F
CHURCHILL      MOSUNNY   57  48  72 NE8       29.89F
GILLAM         PTSUNNY   75  55  50 E7        29.81S SMOKE
$$
                ***SASKATCHEWAN***

CITY           SKY/WX    TMP DP  RH WIND       PRES   REMARKS
ESTEVAN        PTSUNNY   73  66  78 SE14      29.69R THUNDER
KINDERSLEY     MOSUNNY   59  55  88 S7        29.68F
LLOYDMINSTER   LGT RAIN  57  52  82 SE15G25   29.65R
PRINCE ALBERT  CLOUDY    72  66  83 E8        29.61F
REGINA         TSTM      59  59 100 NW20G31   29.76R FOG


USA.gov is the U.S. government's official web portal to all federal, state and local government web resources and services.